Location: Unspecified
(0.0000°N, 0.0000°E)
Time: 17:27:07
(UTC+00:00)

deb Briz - Pass Details

Date: 18 February 2026
Orbit: 1598 x 2046 km, 64.9° (Epoch: 8 March)

Event Time Altitude Azimuth Distance (km) Brightness Sun altitude
Rises 18:16:47 0° 309° (NW) 5,125 ? -0.7°
Reaches altitude 10° 18:20:42 10° 297° (WNW) 4,203 ? -1.7°
Maximum altitude 18:28:56 25° 247° (WSW) 3,279 ? -3.7°
Drops below altitude 10° 18:37:41 10° 196° (SSW) 4,451 ? -5.8°
Sets 18:42:07 0° 183° (S) 5,487 ? -6.9°
